Oroville, CA

12:22 AM PDT on April 28, 2017 (GMT -0700)
Oroville Municipal

Weather History for KOVE - April, 2013

Change the Weather History Date:

Monday, April 8, 2013

  Actual Average Record
Temperature  
Mean Temperature 56 °F -  
Max Temperature 66 °F 69 °F 91 °F (1989)
Min Temperature 46 °F 45 °F 36 °F (2001)
Degree Days  
Heating Degree Days 9    
Growing Degree Days 6 (Base 50)    
Moisture  
Dew Point 37 °F    
Average Humidity 54    
Maximum Humidity 96    
Minimum Humidity 26    
Precipitation  
Precipitation 0.24 in - - ()
Sea Level Pressure  
Sea Level Pressure 29.91 in    
Wind  
Wind Speed 11 mph (NW)    
Max Wind Speed 20 mph    
Max Gust Speed 36 mph    
Visibility 10 miles    
Events Rain    
Averages and records for this station are not official NWS values.
T = Trace of Precipitation, MM = Missing Value Source: NWS Daily Summary

Daily Weather History Graph

Daily Weather History Graph

Search for Another Location

Airport or City:

Trip Planner

Search our weather history database for the weather conditions in past years. The results will help you decide how hot, cold, wet, or windy it might be!

Date:

Astronomy

Apr. 08, 2013 Rise Set
Actual Time 6:39 AM PDT 7:37 PM PDT
Civil Twilight 6:11 AM PDT 8:05 PM PDT
Nautical Twilight 5:39 AM PDT 8:37 PM PDT
Astronomical Twilight 5:05 AM PDT 9:11 PM PDT
Moon 5:31 AM PDT (4/8) 6:17 PM PDT (4/8)
Length of Visible Light 13h 53m
Length of Day
12h 58m
Waning Crescent, 3% of the Moon is Illuminated
Apr 8
Waning Crescent
Apr 10
New
Apr 18
First Quarter
Apr 25
Full
May 2
Last Quarter

Hourly Weather History & Observations

Time (PDT) Temp. Windchill Dew Point Humidity Pressure Visibility Wind Dir Wind Speed Gust Speed Precip Events Conditions
12:53 AM 50.0 °F - 48.0 °F 93% 29.78 in 10.0 mi SE 11.5 mph - 0.01 in Rain Light Rain
1:53 AM 50.0 °F - 48.0 °F 93% 29.79 in 10.0 mi Variable 3.5 mph - 0.00 in Rain Light Rain
2:53 AM 48.0 °F - 46.0 °F 93% 29.78 in 10.0 mi Calm Calm - 0.23 in   Overcast
3:53 AM 46.0 °F 42.5 °F 45.0 °F 96% 29.80 in 10.0 mi WNW 6.9 mph - N/A   Mostly Cloudy
4:53 AM 46.9 °F - 43.0 °F 86% 29.80 in 10.0 mi NW 11.5 mph - N/A   Partly Cloudy
5:53 AM 46.0 °F 41.0 °F 39.9 °F 79% 29.81 in 10.0 mi NNW 10.4 mph 17.3 mph N/A   Clear
6:53 AM 46.0 °F 40.2 °F 37.0 °F 71% 29.86 in 10.0 mi NNW 12.7 mph 19.6 mph N/A   Clear
7:53 AM 48.0 °F - 36.0 °F 63% 29.90 in 10.0 mi NNW 13.8 mph 21.9 mph N/A   Clear
8:53 AM 51.1 °F - 35.1 °F 54% 29.93 in 10.0 mi NW 16.1 mph 29.9 mph N/A   Clear
9:53 AM 55.0 °F - 34.0 °F 45% 29.94 in 10.0 mi NW 16.1 mph 27.6 mph N/A   Clear
10:53 AM 57.9 °F - 34.0 °F 41% 29.96 in 10.0 mi NW 13.8 mph 27.6 mph N/A   Clear
11:53 AM 62.1 °F - 34.0 °F 35% 29.96 in 10.0 mi NNW 11.5 mph 24.2 mph N/A   Clear
12:53 PM 63.0 °F - 34.0 °F 34% 29.95 in 10.0 mi NW 12.7 mph 21.9 mph N/A   Clear
1:53 PM 64.0 °F - 35.1 °F 34% 29.94 in 10.0 mi NW 16.1 mph 24.2 mph N/A   Clear
2:53 PM 64.9 °F - 33.1 °F 31% 29.93 in 10.0 mi WNW 18.4 mph 29.9 mph N/A   Clear
3:53 PM 66.9 °F - 32.0 °F 27% 29.91 in 10.0 mi NW 19.6 mph 35.7 mph N/A   Clear
4:53 PM 66.9 °F - 30.9 °F 26% 29.91 in 10.0 mi NW 17.3 mph 32.2 mph N/A   Clear
5:53 PM 66.0 °F - 30.9 °F 27% 29.92 in 10.0 mi NNW 16.1 mph 25.3 mph N/A   Clear
6:53 PM 64.0 °F - 30.9 °F 29% 29.94 in 10.0 mi NW 11.5 mph 24.2 mph N/A   Clear
7:53 PM 61.0 °F - 34.0 °F 36% 29.97 in 10.0 mi NNW 8.1 mph 17.3 mph N/A   Clear
8:53 PM 54.0 °F - 35.1 °F 49% 30.00 in 10.0 mi WNW 5.8 mph - N/A   Clear
9:53 PM 53.1 °F - 35.1 °F 50% 30.03 in 10.0 mi NNW 6.9 mph - N/A   Clear
10:53 PM 54.0 °F - 34.0 °F 47% 30.04 in 10.0 mi NNW 9.2 mph - N/A   Clear
11:53 PM 52.0 °F - 35.1 °F 53% 30.05 in 10.0 mi NNW 9.2 mph - N/A   Clear